User: anonymous   Login
Location: Unspecified
(0.0000°N, 0.0000°E)
Time: 06:44:36
(UTC+02:00)
Language:

Timation 2 Rocket - Orbit

View from above orbital plane
View from above orbital plane
View from above satellite
View from above satellite

Ground track
Ground track

The orbit data is extracted from the following two-line orbital elements,

1 04159U 69082AB  18116.70475062 -.00000058  00000-0 -93275-5 0  9998
2 04159  69.9628 231.0944 0113192  59.3643 301.8552 13.72395536431108
Epoch (UTC): 26 April 2018 16:54:50
Eccentricity: 0.0113192
inclination: 69.9628°
perigee height: 907 km
apogee height: 1074 km
right ascension of ascending node: 231.0944°
argument of perigee: 59.3643°
revolutions per day: 13.72395536
mean anomaly at epoch: 301.8552°
orbit number at epoch: 43110

The dashed part of the orbit path shows where the satellite is in the earth's shadow,  

DLR